Location: Newark
(39.9581°N, 97.2014°W)
Time: 18:34:27
(UTC+00:00)

Transit 2A Rocket - Visible Passes

Search period start: 21 February 2020 00:00
Search period end: 02 March 2020 00:00
Orbit: 591 x 911 km, 66.7° (Epoch: 20 February)

Date Brightness Start Highest point End Pass type
(mag) Time Alt. Az. Time Alt. Az. Time Alt. Az.
21 Feb 7.5 12:20:07 10° N 12:22:54 14° NE 12:25:47 10° ENE visible
23 Feb 6.9 12:36:17 10° N 12:40:51 30° NE 12:45:46 10° ESE visible
24 Feb 7.5 11:54:20 10° N 11:58:03 19° NE 12:01:59 10° E visible
25 Feb 7.7 11:12:55 10° NNE 11:15:06 12° NE 11:17:21 10° ENE visible
26 Feb 6.4 12:10:55 10° NNW 12:15:53 42° NE 12:21:15 10° SE visible
27 Feb 7.1 11:28:46 10° N 11:33:09 26° NE 11:37:49 10° ESE visible
28 Feb 7.6 10:46:55 10° N 10:50:18 17° NE 10:53:48 10° E visible
28 Feb 5.1 12:28:05 10° NNW 12:33:26 84° WSW 12:39:13 10° SSE visible
29 Feb 7.9 10:06:03 10° NNE 10:07:17 11° NE 10:08:34 10° NE visible
29 Feb 5.7 11:45:38 10° NNW 11:50:51 59° ENE 11:56:31 10° SE visible
01 Mar 6.6 11:03:21 10° NNW 11:08:12 36° NE 11:13:23 10° ESE visible
